Date String (YYYY-MM-DD hh:mm:ss) UTC,Instrument flags,Ambient pressure (hPa),Sample flow (lpm),Bypass flow (lpm),Sample temperature (°C),Ambient temperature (°C),ASC tube jacket temperature (°C),LED temperature (°C),Box temperature (°C),Sample RH (%),Span deviation,Mass concentration (μg/m³),Mass concentration (μg/m³),Mass concentration (μg/m³)
DateTimeUTC,F1_M11,P_M11,Q1_M11,Q2_M11,T1_M11,T2_M11,T3_M11,T4_M11,T5_M11,U1_M11,ZSPAN_M11,X2_M11,X0_M11,X1_M11
2022-08-17 22:00:00,,0831.5,5.00,0.00,29.3,28.0,00.0,38.0,31.3,19.4,0000.0,0004.39,0010.71,0003.93
2022-08-17 22:01:00,,0831.4,4.99,0.00,29.4,28.2,00.0,38.0,31.4,20.3,0000.0,0004.43,0010.52,0003.94
2022-08-17 22:02:00,,0831.5,5.00,0.00,29.4,28.4,00.0,38.1,31.4,20.8,0000.0,0004.42,0010.49,0003.95
2022-08-17 22:03:00,,0831.5,4.99,0.00,29.5,28.5,00.0,38.1,31.5,20.1,0000.0,0004.42,0010.42,0003.96
2022-08-17 22:04:00,,0831.4,5.00,0.00,29.5,28.3,00.0,38.1,31.4,19.8,0000.0,0004.44,0010.36,0003.97
2022-08-17 22:05:00,,0831.4,5.00,0.00,29.4,27.6,00.0,38.1,31.2,19.8,0000.0,0004.44,0009.51,0003.98
2022-08-17 22:06:00,,0831.4,4.99,0.00,29.4,27.2,00.0,38.0,31.1,19.5,0000.0,0004.41,0008.22,0003.99
2022-08-17 22:07:00,,0831.4,5.00,0.00,29.3,27.2,00.0,38.0,31.0,20.2,0000.0,0004.40,0008.09,0003.99
2022-08-17 22:08:00,,0831.4,4.99,0.00,29.2,27.3,00.0,38.0,31.0,19.9,0000.0,0004.45,0007.63,0004.00
2022-08-17 22:09:00,,0831.4,4.99,0.00,29.2,27.4,00.0,38.0,31.1,19.3,0000.0,0004.47,0007.65,0004.01
2022-08-17 22:10:00,,0831.4,5.00,0.00,29.3,27.6,00.0,38.0,31.2,19.0,0000.0,0004.44,0007.97,0004.02
2022-08-17 22:11:00,,0831.4,5.00,0.00,29.3,27.8,00.0,38.0,31.2,19.4,0000.0,0004.46,0008.19,0004.02
2022-08-17 22:12:00,,0831.4,5.00,0.00,29.3,28.0,00.0,38.0,31.3,19.9,0000.0,0004.44,0008.09,0004.02
2022-08-17 22:13:00,,0831.5,4.99,0.00,29.4,28.2,00.0,38.1,31.4,20.6,0000.0,0004.42,0008.00,0004.03
2022-08-17 22:14:00,,0831.5,5.02,0.00,29.4,28.4,00.0,38.1,31.4,19.8,0000.0,0004.41,0007.87,0004.03
2022-08-17 22:15:00,,0831.4,4.99,0.00,29.5,28.5,00.0,38.1,31.5,19.4,0000.0,0004.41,0008.16,0004.02
2022-08-17 22:16:00,,0831.5,5.01,0.00,29.5,28.5,00.0,38.1,31.5,19.1,0000.0,0004.39,0008.28,0004.01
2022-08-17 22:17:00,,0831.4,5.00,0.00,29.5,27.8,00.0,38.1,31.3,19.9,0000.0,0004.37,0009.11,0004.01
2022-08-17 22:18:00,,0831.4,5.00,0.00,29.4,27.3,00.0,38.1,31.2,19.9,0000.0,0004.41,0009.98,0004.00
2022-08-17 22:19:00,,0831.5,5.00,0.00,29.4,27.2,00.0,38.0,31.1,20.0,0000.0,0004.40,0010.28,0004.00
2022-08-17 22:20:00,,0831.4,4.99,0.00,29.3,27.3,00.0,38.0,31.0,18.8,0000.0,0004.37,0010.33,0003.99
2022-08-17 22:21:00,,0831.4,5.00,0.00,29.3,27.4,00.0,38.0,31.1,18.8,0000.0,0004.36,0010.00,0003.99
2022-08-17 22:22:00,,0831.4,5.00,0.00,29.3,27.6,00.0,38.0,31.2,18.7,0000.0,0004.35,0009.70,0003.98
2022-08-17 22:23:00,,0831.4,5.01,0.00,29.3,27.8,00.0,38.0,31.3,18.4,0000.0,0004.33,0009.65,0003.97
2022-08-17 22:24:00,,0831.4,5.00,0.00,29.4,28.0,00.0,38.1,31.3,19.0,0000.0,0004.36,0009.77,0003.97
2022-08-17 22:25:00,,0831.5,4.99,0.00,29.4,28.2,00.0,38.1,31.4,19.4,0000.0,0004.36,0009.96,0003.97
2022-08-17 22:26:00,,0831.4,5.00,0.00,29.5,28.4,00.0,38.1,31.5,19.1,0000.0,0004.34,0009.76,0003.97
2022-08-17 22:27:00,,0831.5,4.99,0.00,29.5,28.5,00.0,38.1,31.5,18.7,0000.0,0004.35,0009.64,0003.98
2022-08-17 22:28:00,,0831.4,5.00,0.00,29.5,28.3,00.0,38.1,31.4,19.0,0000.0,0004.39,0008.98,0003.99
2022-08-17 22:29:00,,0831.4,5.00,0.00,29.5,27.6,00.0,38.1,31.2,18.6,0000.0,0004.36,0008.16,0003.99
2022-08-17 22:30:00,,0831.3,5.01,0.00,29.4,27.2,00.0,38.0,31.1,18.9,0000.0,0004.37,0007.83,0003.99
2022-08-17 22:31:00,,0831.3,4.99,0.00,29.3,27.1,00.0,38.0,31.1,19.9,0000.0,0004.37,0007.92,0004.00
2022-08-17 22:32:00,,0831.3,5.00,0.00,29.3,27.2,00.0,38.0,31.1,19.2,0000.0,0004.38,0008.19,0004.01
2022-08-17 22:33:00,,0831.3,5.02,0.00,29.3,27.4,00.0,38.0,31.1,19.1,0000.0,0004.38,0008.47,0004.00
2022-08-17 22:34:00,,0831.3,5.00,0.00,29.3,27.6,00.0,38.0,31.2,18.7,0000.0,0004.38,0008.45,0004.00
2022-08-17 22:35:00,,0831.3,4.99,0.00,29.3,27.8,00.0,38.1,31.3,18.7,0000.0,0004.34,0008.66,0003.99
2022-08-17 22:36:00,,0831.3,5.01,0.00,29.4,28.0,00.0,38.1,31.4,18.5,0000.0,0004.33,0008.85,0003.97
2022-08-17 22:37:00,,0831.3,5.00,0.00,29.4,28.2,00.0,38.1,31.4,18.7,0000.0,0004.32,0009.15,0003.95
2022-08-17 22:38:00,,0831.4,4.99,0.00,29.5,28.4,00.0,38.1,31.5,18.3,0000.0,0004.32,0009.21,0003.94
2022-08-17 22:39:00,,0831.4,5.02,0.00,29.5,28.5,00.0,38.1,31.6,17.9,0000.0,0004.26,0009.11,0003.91
2022-08-17 22:40:00,,0831.3,4.99,0.00,29.6,28.6,00.0,38.2,31.6,18.4,0000.0,0004.26,0009.11,0003.91
2022-08-17 22:41:00,,0831.3,5.00,0.00,29.6,28.3,00.0,38.2,31.5,18.6,0000.0,0004.23,0008.92,0003.89
2022-08-17 22:42:00,,0831.4,5.00,0.00,29.5,27.5,00.0,38.1,31.2,18.4,0000.0,0004.20,0008.54,0003.88
2022-08-17 22:43:00,,0831.4,5.01,0.00,29.4,27.2,00.0,38.1,31.1,17.9,0000.0,0004.21,0008.38,0003.87
2022-08-17 22:44:00,,0831.3,4.99,0.00,29.4,27.2,00.0,38.1,31.1,18.3,0000.0,0004.20,0008.22,0003.87
2022-08-17 22:45:00,,0831.3,5.00,0.00,29.3,27.3,00.0,38.1,31.1,18.8,0000.0,0004.20,0008.81,0003.87
2022-08-17 22:46:00,,0831.3,5.00,0.00,29.3,27.5,00.0,38.1,31.2,18.4,0000.0,0004.22,0008.64,0003.88
2022-08-17 22:47:00,,0831.3,5.00,0.00,29.3,27.7,00.0,38.1,31.3,18.3,0000.0,0004.23,0008.28,0003.88
2022-08-17 22:48:00,,0831.3,4.99,0.00,29.4,27.9,00.0,38.1,31.3,18.9,0000.0,0004.22,0007.74,0003.89
2022-08-17 22:49:00,,0831.4,4.99,0.00,29.4,28.1,00.0,38.1,31.4,18.4,0000.0,0004.20,0007.72,0003.89
2022-08-17 22:50:00,,0831.3,5.01,0.00,29.5,28.3,00.0,38.1,31.5,19.1,0000.0,0004.23,0007.81,0003.89
2022-08-17 22:51:00,,0831.3,5.01,0.00,29.5,28.4,00.0,38.2,31.6,19.7,0000.0,0004.22,0007.77,0003.87
2022-08-17 22:52:00,,0831.3,4.99,0.00,29.6,28.5,00.0,38.2,31.6,18.5,0000.0,0004.24,0007.78,0003.87
2022-08-17 22:53:00,,0831.3,5.01,0.00,29.5,28.0,00.0,38.1,31.3,18.3,0000.0,0004.28,0008.41,0003.86
2022-08-17 22:54:00,,0831.3,5.01,0.00,29.5,27.3,00.0,38.1,31.1,18.8,0000.0,0004.28,0008.49,0003.86
2022-08-17 22:55:00,,0831.3,5.00,0.00,29.4,27.1,00.0,38.1,31.1,18.3,0000.0,0004.28,0008.24,0003.85
2022-08-17 22:56:00,,0831.2,5.00,0.00,29.3,27.2,00.0,38.1,31.1,18.4,0000.0,0004.31,0007.90,0003.85
2022-08-17 22:57:00,,0831.2,5.00,0.00,29.3,27.4,00.0,38.1,31.1,19.2,0000.0,0004.31,0007.95,0003.84
2022-08-17 22:58:00,,0831.2,5.00,0.00,29.3,27.5,00.0,38.1,31.2,19.6,0000.0,0004.30,0007.96,0003.83
2022-08-17 22:59:00,,0831.2,5.00,0.00,29.3,27.8,00.0,38.1,31.3,18.4,0000.0,0004.31,0008.13,0003.81
